User: anonymous   Login
Location: Unspecified
(0.0000°N, 0.0000°E)
Time: 19:23:20
(UTC+00:00)
Language:

CZ-3B DEB - Orbit

View from above orbital plane
View from above orbital plane
View from above satellite
View from above satellite

Ground track
Ground track

The orbit data is extracted from the following two-line orbital elements,

1 40186U 11077K   24282.45882660 -.00000100  00000-0  00000-0 0  9994
2 40186  25.7551 243.1790 7301428 348.0496  21.1967  1.88721094 87473
Epoch (UTC): 08 October 2024 11:00:42
Eccentricity: 0.7301428
inclination: 25.7551°
perigee height: 1086 km
apogee height: 41477 km
right ascension of ascending node: 243.1790°
argument of perigee: 348.0496°
revolutions per day: 1.88721094
mean anomaly at epoch: 21.1967°
orbit number at epoch: 8747

The dashed part of the orbit path shows where the satellite is in the earth's shadow,  

DLR